This demonstration page uses our WeatherBlox Daily Observations layout. Learn more.

Left ArrowRight Arrow

39.08367, -84.50855

Hourly Observations for June 12, 2015

Temp ( °F °C ) Dew Point ( °F °C ) Humidity (%) Winds ( mph kmh ) Pressure ( in mb ) Visibility ( mi km ) Precip ( " mm )
12:53 am 00:53 Clear 71 21.7 67 19.4 87 87 N N/A 29.88 1012 10 16 N/A
1:53 am 01:53 Clear 70 21.1 68 20 93 93 N N/A 29.88 1012 10 16 N/A
2:53 am 02:53 Clear 69 20.6 67 19.4 93 93 N N/A 29.89 1012 9 14 N/A
3:53 am 03:53 Partly Cloudy 68 20 67 19.4 96 96 N N/A 29.89 1012 8 13 N/A
4:53 am 04:53 Clear with Mist and Fog 67 19.4 67 19.4 100 100 SSE 3 6 29.90 1012 6 10 N/A
5:53 am 05:53 Mostly Clear 67 19.4 67 19.4 100 100 N N/A 29.90 1013 7 11 N/A
6:53 am 06:53 Sunny 68 20 67 19.4 96 96 N N/A 29.91 1013 10 16 N/A
7:53 am 07:53 Sunny 73 22.8 69 20.6 87 87 SSW 5 7 29.92 1013 10 16 N/A
8:53 am 08:53 Sunny 78 25.6 70 21.1 76 76 S 8 13 29.93 1013 10 16 N/A
9:53 am 09:53 Sunny 82 27.8 70 21.1 67 67 SSW 12 19 29.92 1013 10 16 N/A
10:53 am 10:53 Partly Cloudy 84 28.9 71 21.7 65 65 SSW 13 20 29.92 1013 10 16 N/A
11:53 am 11:53 Mostly Sunny 86 30 71 21.7 61 61 SW 14 22 29.92 1013 10 16 N/A
12:53 pm 12:53 Partly Cloudy 87 30.6 70 21.1 57 57 WSW 15 24 29.91 1013 10 16 N/A
1:53 pm 13:53 Mostly Sunny 88 31.1 70 21.1 55 55 SSW 15 24 29.90 1012 10 16 N/A
2:53 pm 14:53 Mostly Sunny 90 32.2 69 20.6 50 50 SSW 15 24 29.88 1012 10 16 N/A
3:53 pm 15:53 Mostly Sunny 91 32.8 68 20 47 47 SW 18 30 29.87 1012 10 16 N/A
4:25 pm 16:25 Partly Cloudy with Nearby Thunderstorms 89 31.7 67 19.4 48 48 WSW 13 20 29.88 1012 10 16 N/A
4:40 pm 16:40 Partly Cloudy 82 28 68 20 62 62 NNW 14 22 29.91 1013 10 16 N/A
4:53 pm 16:53 Partly Cloudy 84 28.9 69 20.6 61 61 NNW 7 11 29.89 1012 10 16 N/A
5:53 pm 17:53 Partly Cloudy 84 28.9 70 21.1 63 63 VRB 6 9 29.88 1012 10 16 N/A
6:12 pm 18:12 Mostly Cloudy with Light Rain 81 27 72 22 74 74 W 23 37 29.91 1013 2 2 N/A
6:17 pm 18:17 Mostly Cloudy 76 24.4 70 21.1 82 82 WNW 10 17 29.91 1013 10 16 0.15 3.81
6:53 pm 18:53 Sunny 78 25.6 72 22.2 82 82 WSW 7 11 29.90 1013 10 16 0.15 3.81
7:53 pm 19:53 Sunny 78 25.6 73 22.8 85 85 N N/A 29.91 1013 10 16 N/A
8:53 pm 20:53 Sunny with Mist and Fog 74 23.3 73 22.8 97 97 N N/A 29.96 1014 5 8 N/A
9:53 pm 21:53 Mostly Clear with Mist and Fog 73 22.8 72 22.2 96 96 SE 3 6 29.96 1015 5 8 N/A
10:32 pm 22:32 Cloudy with Nearby Thunderstorms 74 23.3 72 22.2 94 94 N N/A 29.97 1015 7 11 N/A
10:45 pm 22:45 Cloudy with Thunderstorms 76 24.4 69 20.6 79 79 N 18 30 29.97 1015 3 5 0.12 3.05
10:53 pm 22:53 Cloudy with Thunderstorms 72 22.2 68 20 87 87 NNE 6 9 30.00 1016 3 5 0.14 3.56
11:17 pm 23:17 Partly Cloudy with Rain 70 21.1 69 20.6 97 97 ESE 3 6 29.97 1015 10 16 N/A
11:41 pm 23:41 Partly Cloudy with Thunderstorms 70 21.1 69 20.6 97 97 E 3 6 29.97 1015 6 10 0.02 0.51
11:53 pm 23:53 Mostly Clear with Rain 70 21.1 69 20.6 97 97 S 5 7 29.98 1015 8 13 0.02 0.51

Powered by AerisWeather